DHL175 MMMX-MMPN

Flight info

Callsign DHL175
Flight time 0h 43m
Altitude 30000
Route SEBON3A SEBON UT125 MLM UJ65 UPN
Aircraft B737/M-SDE2E3FGHIRWXY/LB1

Departure

Time 2026-05-05 04:02
Airport Mexico City Benito Juárez International Airport (MMMX)

Arrival

Time 2026-05-05 04:45
Airport Uruapan - Licenciado y General Ignacio Lopez Rayon International Airport (MMPN)
Time Latitude Longitude Altitude Speed Heading
2026-05-05 03:30 19.44008 -99.07329 7302 ft 0 kts 82°
2026-05-05 03:44 19.44008 -99.07330 7302 ft 0 kts 82°
2026-05-05 03:47 19.44007 -99.07330 7302 ft 0 kts 82°
2026-05-05 03:50 19.44005 -99.07350 7302 ft 4 kts 82°
2026-05-05 03:50 19.44001 -99.07379 7302 ft 4 kts 82°
2026-05-05 03:50 19.43998 -99.07407 7302 ft 4 kts 82°
2026-05-05 03:51 19.43996 -99.07419 7302 ft 2 kts 82°
2026-05-05 03:54 19.43994 -99.07414 7302 ft 1 kts 109°
2026-05-05 03:54 19.43983 -99.07408 7302 ft 3 kts 155°
2026-05-05 03:55 19.43958 -99.07392 7302 ft 6 kts 140°
2026-05-05 03:55 19.43932 -99.07351 7302 ft 8 kts 102°
2026-05-05 03:55 19.43911 -99.07304 7302 ft 2 kts 133°
2026-05-05 03:55 19.43900 -99.07293 7302 ft 2 kts 141°
2026-05-05 03:56 19.43884 -99.07293 7302 ft 3 kts 211°
2026-05-05 03:56 19.43852 -99.07336 7302 ft 12 kts 236°
2026-05-05 03:56 19.43801 -99.07427 7302 ft 16 kts 240°
2026-05-05 03:56 19.43742 -99.07532 7302 ft 18 kts 239°
2026-05-05 03:57 19.43676 -99.07651 7302 ft 20 kts 239°
2026-05-05 03:57 19.43603 -99.07781 7302 ft 21 kts 239°
2026-05-05 03:57 19.43523 -99.07921 7302 ft 23 kts 239°
2026-05-05 03:57 19.43440 -99.08072 7302 ft 24 kts 239°
2026-05-05 03:58 19.43358 -99.08217 7302 ft 23 kts 239°
2026-05-05 03:58 19.43278 -99.08361 7302 ft 23 kts 239°
2026-05-05 03:58 19.43194 -99.08509 7302 ft 23 kts 239°
2026-05-05 03:58 19.43114 -99.08652 7302 ft 22 kts 239°
2026-05-05 03:59 19.43059 -99.08751 7302 ft 12 kts 239°
2026-05-05 03:59 19.43014 -99.08819 7302 ft 11 kts 210°
2026-05-05 03:59 19.42975 -99.08801 7302 ft 6 kts 120°
2026-05-05 03:59 19.42959 -99.08760 7301 ft 6 kts 111°
2026-05-05 04:00 19.42952 -99.08710 7301 ft 8 kts 74°
2026-05-05 04:00 19.42980 -99.08653 7300 ft 10 kts 59°
2026-05-05 04:00 19.42984 -99.08646 7300 ft 0 kts 57°
2026-05-05 04:00 19.42985 -99.08644 7300 ft 4 kts 57°
2026-05-05 04:01 19.43102 -99.08442 7300 ft 63 kts 59°
2026-05-05 04:01 19.43430 -99.07858 7304 ft 119 kts 60°
2026-05-05 04:01 19.43937 -99.06958 7306 ft 164 kts 59°
2026-05-05 04:01 19.44588 -99.05856 7473 ft 189 kts 58°
2026-05-05 04:02 19.45338 -99.04631 7949 ft 201 kts 57°
2026-05-05 04:02 19.46117 -99.03413 8738 ft 204 kts 59°
2026-05-05 04:02 19.46814 -99.02127 9418 ft 208 kts 64°
2026-05-05 04:02 19.47562 -99.00673 9590 ft 239 kts 63°
2026-05-05 04:03 19.48431 -98.99040 9772 ft 267 kts 62°
2026-05-05 04:03 19.49376 -98.97279 10392 ft 280 kts 65°
2026-05-05 04:03 19.49829 -98.95312 11367 ft 276 kts 94°
2026-05-05 04:03 19.49337 -98.93369 12351 ft 276 kts 119°
2026-05-05 04:04 19.48065 -98.91829 13195 ft 285 kts 144°
2026-05-05 04:04 19.46259 -98.91008 14035 ft 293 kts 169°
2026-05-05 04:04 19.44208 -98.91073 14823 ft 300 kts 195°
2026-05-05 04:04 19.42365 -98.92093 15685 ft 303 kts 223°
2026-05-05 04:05 19.41136 -98.93908 16482 ft 309 kts 246°
2026-05-05 04:05 19.40367 -98.96035 16860 ft 310 kts 253°
2026-05-05 04:05 19.39708 -98.98231 17050 ft 315 kts 253°
2026-05-05 04:05 19.39019 -99.00439 17048 ft 315 kts 252°
2026-05-05 04:06 19.38297 -99.02622 17049 ft 313 kts 251°
2026-05-05 04:06 19.37570 -99.04761 17051 ft 313 kts 251°
2026-05-05 04:06 19.36889 -99.06941 17057 ft 314 kts 258°
2026-05-05 04:06 19.36487 -99.09275 17235 ft 332 kts 263°
2026-05-05 04:07 19.36168 -99.11755 17789 ft 345 kts 264°
2026-05-05 04:07 19.35847 -99.14296 18582 ft 350 kts 263°
2026-05-05 04:07 19.35509 -99.16859 19336 ft 353 kts 263°
2026-05-05 04:07 19.35153 -99.19437 20099 ft 355 kts 262°
2026-05-05 04:08 19.34781 -99.22041 20774 ft 361 kts 262°
2026-05-05 04:08 19.34406 -99.24623 21092 ft 360 kts 262°
2026-05-05 04:08 19.34019 -99.27258 21203 ft 364 kts 262°
2026-05-05 04:08 19.33629 -99.29906 21182 ft 363 kts 262°
2026-05-05 04:09 19.33240 -99.32540 21161 ft 362 kts 262°
2026-05-05 04:09 19.32852 -99.35170 21144 ft 361 kts 262°
2026-05-05 04:09 19.32468 -99.37798 21318 ft 361 kts 264°
2026-05-05 04:09 19.32537 -99.40438 21345 ft 365 kts 286°
2026-05-05 04:10 19.33324 -99.43088 21396 ft 390 kts 289°
2026-05-05 04:10 19.34140 -99.45836 21427 ft 400 kts 288°
2026-05-05 04:10 19.34953 -99.48659 21432 ft 402 kts 288°
2026-05-05 04:10 19.35756 -99.51489 21421 ft 401 kts 287°
2026-05-05 04:11 19.36554 -99.54314 21423 ft 400 kts 287°
2026-05-05 04:11 19.37351 -99.57135 21422 ft 400 kts 287°
2026-05-05 04:11 19.38109 -99.59963 21420 ft 400 kts 282°
2026-05-05 04:11 19.38192 -99.62918 21599 ft 407 kts 264°
2026-05-05 04:12 19.37896 -99.65909 22250 ft 409 kts 265°
2026-05-05 04:12 19.37685 -99.68914 22930 ft 410 kts 266°
2026-05-05 04:12 19.37502 -99.71938 23297 ft 413 kts 266°
2026-05-05 04:12 19.37325 -99.74977 23304 ft 413 kts 266°
2026-05-05 04:13 19.37145 -99.77975 23279 ft 413 kts 266°
2026-05-05 04:13 19.36958 -99.81014 23249 ft 413 kts 266°
2026-05-05 04:13 19.36767 -99.84062 23325 ft 419 kts 266°
2026-05-05 04:13 19.36571 -99.87165 23757 ft 424 kts 266°
2026-05-05 04:14 19.36373 -99.90278 24315 ft 423 kts 266°
2026-05-05 04:14 19.36175 -99.93383 24871 ft 423 kts 266°
2026-05-05 04:14 19.35977 -99.96491 25410 ft 424 kts 266°
2026-05-05 04:14 19.35781 -99.99575 25859 ft 427 kts 266°
2026-05-05 04:15 19.35579 -100.02737 26016 ft 433 kts 266°
2026-05-05 04:15 19.35375 -100.05917 26025 ft 432 kts 266°
2026-05-05 04:15 19.35172 -100.09081 26036 ft 430 kts 266°
2026-05-05 04:15 19.35245 -100.12231 26011 ft 429 kts 282°
2026-05-05 04:16 19.36285 -100.15172 26004 ft 426 kts 299°
2026-05-05 04:16 19.37941 -100.17769 26024 ft 426 kts 308°
2026-05-05 04:16 19.39763 -100.20244 26006 ft 427 kts 309°
2026-05-05 04:16 19.41609 -100.22714 26004 ft 428 kts 308°
2026-05-05 04:17 19.43429 -100.25159 25993 ft 429 kts 308°
2026-05-05 04:17 19.45265 -100.27653 25992 ft 430 kts 308°
2026-05-05 04:17 19.47094 -100.30159 25966 ft 430 kts 308°
2026-05-05 04:17 19.48916 -100.32673 25969 ft 431 kts 308°
2026-05-05 04:18 19.50738 -100.35196 25986 ft 431 kts 308°
2026-05-05 04:18 19.52555 -100.37717 25991 ft 429 kts 308°
2026-05-05 04:18 19.54364 -100.40228 25983 ft 428 kts 308°
2026-05-05 04:18 19.56167 -100.42730 25949 ft 427 kts 308°
2026-05-05 04:19 19.57966 -100.45227 25950 ft 425 kts 308°
2026-05-05 04:19 19.59736 -100.47685 25950 ft 424 kts 308°
2026-05-05 04:19 19.61524 -100.50170 25955 ft 424 kts 308°
2026-05-05 04:19 19.63312 -100.52655 25967 ft 424 kts 308°
2026-05-05 04:20 19.65100 -100.55141 25965 ft 424 kts 308°
2026-05-05 04:20 19.66887 -100.57625 25941 ft 424 kts 308°
2026-05-05 04:20 19.68677 -100.60118 25939 ft 425 kts 307°
2026-05-05 04:20 19.70288 -100.62755 25934 ft 427 kts 297°
2026-05-05 04:21 19.71447 -100.65656 25950 ft 428 kts 290°
2026-05-05 04:21 19.72427 -100.68595 25965 ft 429 kts 289°
2026-05-05 04:21 19.73419 -100.71585 25994 ft 430 kts 289°
2026-05-05 04:21 19.74423 -100.74580 26024 ft 431 kts 290°
2026-05-05 04:22 19.75439 -100.77573 26053 ft 431 kts 290°
2026-05-05 04:22 19.76461 -100.80564 26088 ft 431 kts 290°
2026-05-05 04:22 19.77488 -100.83552 26126 ft 431 kts 290°
2026-05-05 04:22 19.78514 -100.86538 26165 ft 431 kts 290°
2026-05-05 04:23 19.79541 -100.89523 26201 ft 430 kts 290°
2026-05-05 04:23 19.80548 -100.92458 26238 ft 428 kts 290°
2026-05-05 04:23 19.81562 -100.95413 26261 ft 425 kts 290°
2026-05-05 04:23 19.82572 -100.98358 26249 ft 423 kts 290°
2026-05-05 04:24 19.83457 -101.01329 26241 ft 422 kts 281°
2026-05-05 04:24 19.83663 -101.04423 26270 ft 420 kts 268°
2026-05-05 04:24 19.83241 -101.07486 26253 ft 420 kts 254°
2026-05-05 04:25 19.80836 -101.13122 26237 ft 419 kts 244°
2026-05-05 04:25 19.79514 -101.15880 26197 ft 420 kts 244°
2026-05-05 04:25 19.78214 -101.18612 26160 ft 420 kts 243°
2026-05-05 04:25 19.76911 -101.21388 26123 ft 420 kts 243°
2026-05-05 04:26 19.75618 -101.24175 26087 ft 421 kts 244°
2026-05-05 04:26 19.74335 -101.26963 25915 ft 420 kts 244°
2026-05-05 04:26 19.73056 -101.29749 25914 ft 420 kts 244°
2026-05-05 04:26 19.71777 -101.32535 25928 ft 419 kts 244°
2026-05-05 04:27 19.70500 -101.35317 25942 ft 419 kts 244°
2026-05-05 04:27 19.69225 -101.38093 25943 ft 418 kts 244°
2026-05-05 04:27 19.67968 -101.40825 25945 ft 417 kts 244°
2026-05-05 04:27 19.66695 -101.43591 25945 ft 417 kts 244°
2026-05-05 04:28 19.65436 -101.46361 25962 ft 417 kts 244°
2026-05-05 04:28 19.64194 -101.49141 25963 ft 417 kts 245°
2026-05-05 04:28 19.62950 -101.51940 25526 ft 422 kts 245°
2026-05-05 04:28 19.61705 -101.54746 25087 ft 419 kts 245°
2026-05-05 04:29 19.60466 -101.57532 24637 ft 416 kts 244°
2026-05-05 04:29 19.59234 -101.60298 24195 ft 413 kts 244°
2026-05-05 04:29 19.58009 -101.63044 23691 ft 411 kts 244°
2026-05-05 04:29 19.56789 -101.65777 23047 ft 409 kts 244°
2026-05-05 04:30 19.55575 -101.68491 22387 ft 406 kts 244°
2026-05-05 04:30 19.54386 -101.71150 21763 ft 404 kts 243°
2026-05-05 04:30 19.53184 -101.73834 21131 ft 401 kts 243°
2026-05-05 04:30 19.51991 -101.76498 20524 ft 399 kts 243°
2026-05-05 04:31 19.50804 -101.79148 19918 ft 397 kts 244°
2026-05-05 04:31 19.49622 -101.81785 19332 ft 395 kts 243°
2026-05-05 04:31 19.48445 -101.84410 18742 ft 393 kts 243°
2026-05-05 04:31 19.47272 -101.87024 18123 ft 392 kts 243°
2026-05-05 04:32 19.46098 -101.89639 17362 ft 393 kts 244°
2026-05-05 04:32 19.44941 -101.92215 16644 ft 393 kts 244°
2026-05-05 04:32 19.43776 -101.94811 15912 ft 385 kts 244°
2026-05-05 04:32 19.42638 -101.97344 15191 ft 378 kts 244°
2026-05-05 04:33 19.41518 -101.99835 14497 ft 371 kts 244°
2026-05-05 04:33 19.40416 -102.02276 13825 ft 364 kts 243°
2026-05-05 04:33 19.38959 -102.04416 13015 ft 358 kts 220°
2026-05-05 04:33 19.36930 -102.05874 12329 ft 349 kts 208°
2026-05-05 04:34 19.34850 -102.07161 11613 ft 344 kts 209°
2026-05-05 04:34 19.32830 -102.08416 10907 ft 339 kts 210°
2026-05-05 04:34 19.30818 -102.09665 10259 ft 329 kts 210°
2026-05-05 04:34 19.28877 -102.10836 9574 ft 313 kts 205°
2026-05-05 04:35 19.26847 -102.11297 9210 ft 285 kts 181°
2026-05-05 04:35 19.24990 -102.11141 9173 ft 258 kts 169°
2026-05-05 04:35 19.23256 -102.10631 8816 ft 261 kts 160°
2026-05-05 04:35 19.21605 -102.09879 8634 ft 254 kts 155°
2026-05-05 04:36 19.20087 -102.09093 8747 ft 231 kts 153°
2026-05-05 04:36 19.18622 -102.08569 8713 ft 222 kts 173°
2026-05-05 04:36 19.17077 -102.08597 8588 ft 228 kts 190°
2026-05-05 04:36 19.15596 -102.09160 8413 ft 227 kts 210°
2026-05-05 04:37 19.14344 -102.10195 8144 ft 231 kts 224°
2026-05-05 04:37 19.13223 -102.11461 7618 ft 246 kts 227°
2026-05-05 04:37 19.12075 -102.12795 7452 ft 241 kts 228°
2026-05-05 04:37 19.10985 -102.14137 7062 ft 245 kts 230°
2026-05-05 04:38 19.09870 -102.15610 6175 ft 268 kts 232°
2026-05-05 04:38 19.08850 -102.17255 5785 ft 265 kts 242°
2026-05-05 04:38 19.08446 -102.19059 5853 ft 243 kts 278°
2026-05-05 04:38 19.09211 -102.20542 5796 ft 232 kts 320°
2026-05-05 04:39 19.10614 -102.21325 5614 ft 228 kts 341°
2026-05-05 04:39 19.12070 -102.21677 5924 ft 203 kts 355°
2026-05-05 04:39 19.13454 -102.21639 5948 ft 200 kts 10°
2026-05-05 04:39 19.14834 -102.21236 5626 ft 212 kts 24°
2026-05-05 04:40 19.16131 -102.20478 5477 ft 211 kts 38°
2026-05-05 04:40 19.17145 -102.19499 5787 ft 188 kts 46°
2026-05-05 04:40 19.18078 -102.18490 5553 ft 202 kts 45°
2026-05-05 04:40 19.19152 -102.17475 5484 ft 207 kts 39°
2026-05-05 04:41 19.20334 -102.16606 5561 ft 205 kts 32°
2026-05-05 04:41 19.21547 -102.15880 5701 ft 200 kts 31°
2026-05-05 04:41 19.22696 -102.15137 6015 ft 188 kts 34°
2026-05-05 04:41 19.23795 -102.14363 6093 ft 199 kts 33°
2026-05-05 04:42 19.25013 -102.13544 6272 ft 213 kts 33°
2026-05-05 04:42 19.26291 -102.12683 6471 ft 222 kts 33°
2026-05-05 04:42 19.27619 -102.11798 6709 ft 225 kts 32°
2026-05-05 04:42 19.28954 -102.10976 6856 ft 221 kts 30°
2026-05-05 04:43 19.30267 -102.10137 6954 ft 218 kts 33°
2026-05-05 04:43 19.31511 -102.09261 6852 ft 214 kts 35°
2026-05-05 04:43 19.32692 -102.08402 6597 ft 201 kts 33°
2026-05-05 04:43 19.33877 -102.07669 6234 ft 195 kts 30°
2026-05-05 04:44 19.34997 -102.06958 6037 ft 177 kts 33°
2026-05-05 04:44 19.35991 -102.06251 5645 ft 169 kts 34°
2026-05-05 04:44 19.36964 -102.05643 5384 ft 153 kts 31°
2026-05-05 04:44 19.37871 -102.05046 5212 ft 158 kts 33°
2026-05-05 04:45 19.38768 -102.04461 5053 ft 147 kts 31°
2026-05-05 04:45 19.39490 -102.03988 5236 ft 92 kts 32°
2026-05-05 04:45 19.39857 -102.03748 5059 ft 31 kts 31°
2026-05-05 04:45 19.39905 -102.03717 5060 ft 0 kts 31°